1496023200.59,4244,17.0,74366.8,4.09,-31.33,-31.73,0,*42
1496023201.86,4245,17.0,74370.8,4.09,-31.39,-31.85,0,*40
1496023203.1,4246,17.0,74370.5,4.09,-31.29,-31.73,0,*4B
1496023204.34,4247,17.0,74368.3,4.09,-31.29,-31.73,0,*4A
1496023205.58,4248,17.0,74370.5,4.09,-31.33,-31.73,0,*4E
1496023206.83,4249,17.0,74368.5,4.09,-31.33,-31.73,0,*4F
1496023208.07,4250,17.0,74374.0,4.07,-31.57,-31.91,0,*47
1496023209.33,4251,17.0,74366.8,4.07,-31.57,-31.95,0,*42
1496023210.55,4252,17.0,74370.3,4.07,-31.45,-31.95,0,*42
1496023211.78,4253,17.0,74366.3,4.07,-31.45,-31.91,0,*47
1496023212.99,4254,17.0,74370.3,4.07,-31.39,-31.79,0,*4D
1496023214.27,4255,17.0,74370.0,4.05,-31.57,-32.07,0,*4C
1496023215.52,4256,17.0,74368.3,4.07,-31.57,-31.91,0,*41
1496023216.77,4257,17.0,74370.0,4.05,-31.45,-31.95,0,*45
1496023217.99,4258,17.0,74370.0,4.07,-31.33,-31.73,0,*41
1496023219.23,4259,17.0,74370.0,4.07,-31.39,-31.73,0,*4A
1496023220.48,4260,17.0,74372.0,4.05,-31.17,-31.61,0,*4D
1496023221.72,4261,17.0,74368.5,4.05,-31.33,-31.73,0,*49
1496023223.0,4262,17.0,74368.3,4.05,-31.23,-31.61,0,*48
1496023224.24,4263,17.0,74372.5,4.05,-31.39,-31.79,0,*4B
1496023225.48,4264,17.0,74370.8,4.05,-31.17,-31.57,0,*4C
1496023226.71,4265,17.0,74368.3,4.05,-31.01,-31.45,0,*49
1496023227.95,4266,17.0,74364.3,4.05,-31.17,-31.57,0,*4E
1496023229.19,4267,17.0,74368.0,4.05,-31.17,-31.57,0,*4F
1496023230.44,4268,17.0,74372.8,4.05,-31.39,-31.79,0,*40
1496023231.71,4269,17.0,74368.0,4.05,-31.57,-31.91,0,*4F
1496023232.96,4270,17.0,74370.3,4.05,-31.45,-31.91,0,*44
1496023234.19,4271,17.0,74374.3,4.03,-31.11,-31.45,0,*4B
1496023235.43,4272,17.0,74368.8,4.05,-31.39,-31.79,0,*4B
1496023236.68,4273,17.0,74370.5,4.05,-31.39,-31.79,0,*4A
1496023237.92,4274,17.0,74368.3,4.03,-31.39,-31.85,0,*48
1496023239.16,4275,17.0,74370.0,4.03,-31.51,-31.85,0,*47
1496023240.37,4276,17.0,74368.5,4.03,-31.51,-31.79,0,*47
1496023241.56,4277,17.0,74370.3,4.03,-31.29,-31.79,0,*49
1496023242.83,4278,17.0,74370.8,4.01,-31.51,-31.91,0,*4D
1496023244.04,4279,17.0,74364.0,4.03,-31.39,-31.67,0,*49
1496023245.3,4280,17.0,74370.3,4.01,-31.45,-31.91,0,*4F
1496023246.57,4281,17.0,74370.5,4.01,-31.57,-31.95,0,*49
1496023247.82,4282,17.0,74370.5,4.01,-31.33,-31.85,0,*49
1496023249.06,4283,17.0,74368.8,4.01,-31.33,-31.73,0,*41
1496023250.27,4284,17.0,74366.8,4.03,-31.39,-31.67,0,*4B
1496023251.52,4285,17.0,74368.8,4.01,-31.33,-31.85,0,*4E
1496023252.76,4286,17.0,74370.5,4.03,-31.39,-31.85,0,*45
1496023254.01,4287,17.0,74370.5,4.01,-31.45,-31.85,0,*4D
1496023255.28,4288,17.0,74370.8,4.01,-31.51,-31.91,0,*42
1496023256.53,4289,17.0,74370.0,4.01,-31.67,-32.07,0,*4A
1496023257.77,4290,17.0,74364.8,4.01,-31.57,-32.01,0,*47
1496023259.02,4291,17.0,74364.5,4.01,-31.33,-31.85,0,*4B
1496023260.26,4292,17.0,74370.5,4.01,-31.33,-31.73,0,*41
1496023261.51,4293,17.0,74368.8,4.01,-31.45,-31.91,0,*4D
1496023262.79,4294,17.0,74370.8,4.01,-31.57,-31.91,0,*49
1496023264.01,4295,17.0,74368.5,3.99,-31.33,-31.85,0,*49
1496023265.2,4296,17.0,74366.8,3.99,-31.29,-31.67,0,*4D
1496023266.43,4297,17.0,74368.5,3.99,-31.29,-31.51,0,*49
1496023267.65,4298,17.0,74370.0,3.99,-31.33,-31.73,0,*4D
1496023268.87,4299,17.0,74368.8,3.99,-31.33,-31.85,0,*45
1496023270.09,4300,17.0,74370.3,3.99,-31.33,-31.73,0,*4D
1496023271.29,4301,17.0,74370.3,3.99,-31.33,-31.67,0,*49
1496023272.56,4302,17.0,74372.0,3.97,-31.23,-31.57,0,*46
1496023273.75,4303,17.0,74370.0,3.99,-31.29,-31.67,0,*40
1496023274.95,4304,17.0,74370.8,3.99,-31.29,-31.67,0,*47
1496023276.19,4305,17.0,74372.8,3.97,-31.33,-31.73,0,*46
1496023277.39,4306,17.0,74370.8,3.99,-31.33,-31.67,0,*4E
1496023278.66,4307,17.0,74368.8,3.97,-31.57,-31.91,0,*4A
1496023279.93,4308,17.0,74364.5,3.97,-31.39,-31.91,0,*4D
1496023281.18,4309,17.0,74368.0,3.99,-31.39,-31.91,0,*42
1496023282.45,4310,17.0,74368.0,3.97,-31.51,-31.91,0,*4A
1496023283.7,4311,17.0,74364.3,3.99,-31.51,-31.85,0,*40
1496023284.96,4312,17.0,74366.3,3.97,-31.39,-31.73,0,*4A
1496023286.24,4313,17.0,74366.8,3.97,-31.57,-32.07,0,*43
1496023287.52,4314,17.0,74366.8,3.97,-31.73,-32.07,0,*42
1496023288.79,4315,17.0,74368.8,3.97,-31.39,-31.95,0,*45
1496023290.06,4316,17.0,74370.3,3.95,-31.51,-31.91,0,*4E
1496023291.33,4317,17.0,74370.8,3.97,-31.57,-31.91,0,*4B
1496023292.55,4318,17.0,74370.0,3.97,-31.33,-31.79,0,*40
1496023293.82,4319,17.0,74370.5,3.97,-31.39,-31.91,0,*4D
1496023295.07,4320,17.0,74368.3,3.97,-31.33,-31.73,0,*41
1496023296.33,4321,17.0,74370.3,3.95,-31.51,-31.91,0,*4A
1496023297.6,4322,17.0,74364.0,3.95,-31.51,-31.95,0,*4D
1496023298.84,4323,17.0,74366.8,3.93,-31.57,-31.95,0,*4C
1496023300.11,4324,17.0,74368.0,3.95,-31.57,-31.95,0,*4D
1496023301.3,4325,17.0,74364.8,3.93,-31.79,-32.13,0,*4B
1496023302.51,4326,17.0,74366.3,3.93,-31.61,-32.13,0,*41
1496023303.78,4327,17.0,74368.5,3.95,-31.51,-31.95,0,*48
1496023305.05,4328,17.0,74368.3,3.95,-31.61,-31.95,0,*44
1496023306.29,4329,17.0,74370.5,3.95,-31.61,-32.13,0,*48
1496023307.5,4330,17.0,74370.0,3.93,-31.39,-31.79,0,*44
1496023308.72,4331,17.0,74368.5,3.93,-31.45,-31.85,0,*4D
1496023309.93,4332,17.0,74368.8,3.93,-31.57,-32.01,0,*42
1496023311.18,4333,17.0,74368.3,3.93,-31.61,-31.95,0,*48
1496023312.37,4334,17.0,74370.8,3.93,-31.45,-31.79,0,*4B
1496023313.61,4335,17.0,74366.3,3.93,-31.39,-31.61,0,*48
1496023314.83,4336,17.0,74372.0,3.93,-31.23,-31.45,0,*46
1496023316.07,4337,17.0,74368.5,3.95,-31.17,-31.57,0,*45
1496023317.25,4338,17.0,74368.8,3.93,-31.29,-31.67,0,*42
1496023318.48,4339,17.0,74368.8,3.89,-31.45,-31.91,0,*4B
1496023319.69,4340,17.0,74370.5,3.89,-31.33,-31.73,0,*48
1496023320.91,4341,17.0,74366.3,3.93,-31.45,-31.85,0,*4A
1496023322.13,4342,17.0,74366.3,3.89,-31.45,-31.91,0,*47
1496023323.35,4343,17.0,74370.0,3.93,-31.29,-31.61,0,*48
1496023324.59,4344,17.0,74366.8,3.93,-31.23,-31.39,0,*48
1496023325.81,4345,17.0,74366.8,3.89,-31.17,-31.51,0,*4B
1496023327.0,4346,17.0,74368.5,3.89,-31.29,-31.67,0,*40
1496023328.2,4347,17.0,74368.3,3.89,-31.29,-31.67,0,*41
1496023329.41,4348,17.0,74364.5,3.93,-31.29,-31.51,0,*40
1496023330.63,4349,17.0,74366.0,3.93,-31.29,-31.61,0,*42
1496023331.81,4350,17.0,74366.0,3.93,-31.29,-31.67,0,*4C
1496023333.01,4351,17.0,74366.3,3.89,-31.29,-31.45,0,*46
1496023334.25,4352,17.0,74370.3,3.89,-31.11,-31.45,0,*4E
1496023335.46,4353,17.0,74368.8,3.89,-31.17,-31.51,0,*4C
1496023336.69,4354,17.0,74370.0,3.89,-31.11,-31.33,0,*49
1496023337.92,4355,17.0,74366.3,3.89,-31.11,-31.45,0,*49
1496023339.16,4356,17.0,74370.5,3.93,-30.95,-31.39,0,*47
1496023340.4,4357,17.0,74370.3,3.93,-31.23,-31.57,0,*42
1496023341.59,4358,17.0,74368.0,3.93,-31.05,-31.45,0,*4A
1496023342.81,4359,17.0,74366.3,3.93,-31.11,-31.45,0,*4E
1496023344.03,4360,17.0,74364.0,3.89,-31.17,-31.51,0,*4C
1496023345.25,4361,17.0,74366.8,3.89,-31.33,-31.61,0,*48
1496023346.44,4362,17.0,74368.5,3.93,-31.29,-31.67,0,*4D
1496023347.68,4363,17.0,74368.3,3.93,-31.23,-31.61,0,*40
1496023348.9,4364,17.0,74368.5,3.93,-31.29,-31.61,0,*4D
1496023350.12,4365,17.0,74370.0,3.89,-31.33,-31.73,0,*4F
1496023351.33,4366,17.0,74366.5,3.93,-31.39,-31.79,0,*47
1496023352.54,4367,17.0,74368.3,3.89,-31.33,-31.73,0,*4D
1496023353.79,4368,17.0,74368.3,3.89,-31.11,-31.51,0,*42
1496023354.98,4369,17.0,74364.5,3.89,-31.33,-31.67,0,*46
1496023356.2,4370,17.0,74366.8,3.89,-31.33,-31.85,0,*42
1496023357.42,4371,17.0,74368.5,3.89,-31.45,-31.85,0,*42
1496023358.67,4372,17.0,74366.3,3.87,-31.29,-31.61,0,*4F
1496023359.89,4373,17.0,74368.5,3.89,-31.17,-31.61,0,*4D
1496023361.11,4374,17.0,74366.3,3.89,-31.17,-31.51,0,*49
1496023362.33,4375,17.0,74368.5,3.89,-31.29,-31.85,0,*4C
1496023363.54,4376,17.0,74368.8,3.89,-31.33,-31.73,0,*4D
1496023364.76,4377,17.0,74366.8,3.89,-31.29,-31.61,0,*44
1496023365.98,4378,17.0,74366.0,3.89,-31.17,-31.51,0,*45
1496023367.17,4379,17.0,74366.0,3.89,-31.01,-31.33,0,*47
1496023368.39,4380,17.0,74368.3,3.89,-31.17,-31.61,0,*41
1496023369.61,4381,17.0,74366.0,3.89,-31.17,-31.51,0,*43
1496023370.83,4382,17.0,74370.3,3.89,-31.17,-31.61,0,*43
1496023372.05,4383,17.0,74366.3,3.89,-31.33,-31.73,0,*47
1496023373.26,4384,17.0,74370.3,3.89,-31.33,-31.73,0,*40
1496023374.48,4385,17.0,74364.5,3.89,-31.17,-31.51,0,*47
1496023375.72,4386,17.0,74368.5,3.87,-31.17,-31.51,0,*4A
1496023376.97,4387,17.0,74366.5,3.89,-31.11,-31.51,0,*43
1496023378.22,4388,17.0,74364.0,3.87,-31.11,-31.45,0,*47
1496023379.42,4389,17.0,74366.8,3.89,-31.17,-31.67,0,*4E
1496023380.64,4390,17.0,74366.8,3.89,-31.45,-31.91,0,*48
1496023381.86,4391,17.0,74368.0,3.89,-31.45,-31.85,0,*4C
1496023383.11,4392,17.0,74368.3,3.89,-31.11,-31.51,0,*47
1496023384.34,4393,17.0,74364.5,3.93,-31.11,-31.45,0,*48
1496023385.52,4394,17.0,74368.5,3.89,-31.01,-31.33,0,*44
1496023386.76,4395,17.0,74364.8,3.89,-31.11,-31.45,0,*45
1496023387.97,4396,17.0,74370.3,3.89,-31.17,-31.51,0,*45
1496023389.22,4397,17.0,74370.5,3.87,-31.29,-31.61,0,*44
1496023390.44,4398,17.0,74366.5,3.89,-31.29,-31.61,0,*45
1496023391.68,4399,17.0,74366.5,3.93,-31.11,-31.57,0,*41
1496023392.89,4400,17.0,74368.0,3.87,-31.29,-31.67,0,*4B
1496023394.12,4401,17.0,74368.3,3.89,-31.11,-31.45,0,*4F
1496023395.31,4402,17.0,74364.0,3.89,-31.33,-31.67,0,*4C
1496023396.55,4403,17.0,74366.5,3.87,-31.33,-31.85,0,*4F
1496023397.77,4404,17.0,74366.0,3.89,-31.17,-31.51,0,*49
1496023399.02,4405,17.0,74370.3,3.87,-31.11,-31.45,0,*45
1496023400.26,4406,17.0,74364.0,3.87,-31.17,-31.61,0,*46
1496023401.5,4407,17.0,74368.5,3.87,-31.17,-31.51,0,*44
1496023402.74,4408,17.0,74370.3,3.87,-31.33,-31.61,0,*4E
1496023403.98,4409,17.0,74364.0,3.87,-31.33,-31.73,0,*4C
1496023405.19,4410,17.0,74364.3,3.87,-31.29,-31.67,0,*4A
1496023406.41,4411,17.0,74368.8,3.87,-31.29,-31.67,0,*4B
1496023407.67,4412,17.0,74366.8,3.87,-31.11,-31.51,0,*46
1496023408.9,4413,17.0,74370.3,3.89,-31.17,-31.51,0,*4F
1496023410.13,4414,17.0,74366.3,3.87,-31.33,-31.73,0,*40
1496023411.34,4415,17.0,74366.0,3.87,-31.29,-31.67,0,*4F
1496023412.59,4416,17.0,74368.0,3.87,-31.11,-31.45,0,*47
1496023413.84,4417,17.0,74366.8,3.87,-30.95,-31.29,0,*41
1496023415.05,4418,17.0,74366.8,3.87,-31.01,-31.45,0,*48
1496023416.29,4419,17.0,74364.8,3.87,-30.95,-31.33,0,*44
1496023417.56,4420,17.0,74366.0,3.87,-31.11,-31.61,0,*44
1496023418.78,4421,17.0,74366.0,3.87,-31.29,-31.67,0,*48
1496023420.01,4422,17.0,74366.8,3.87,-31.33,-31.73,0,*45
1496023421.22,4423,17.0,74364.3,3.87,-31.29,-31.67,0,*4A
1496023422.45,4424,17.0,74366.0,3.89,-31.33,-31.61,0,*4E
1496023423.68,4425,17.0,74366.0,3.87,-31.33,-31.85,0,*4B
1496023424.9,4426,17.0,74370.3,3.89,-31.33,-31.73,0,*4F
1496023426.09,4427,17.0,74368.0,3.85,-31.33,-31.79,0,*48
1496023427.36,4428,17.0,74370.8,3.83,-31.39,-31.95,0,*49
1496023428.59,4429,17.0,74370.0,3.87,-31.51,-32.01,0,*4C
1496023429.84,4430,17.0,74366.8,3.85,-31.57,-32.07,0,*46
1496023431.03,4431,17.0,74364.8,3.85,-31.67,-32.13,0,*41
1496023432.27,4432,17.0,74364.0,3.83,-31.73,-32.23,0,*42
1496023433.46,4433,17.0,74370.0,3.85,-31.79,-32.23,0,*4F
1496023434.7,4434,17.0,74366.3,3.83,-31.73,-32.23,0,*44
1496023435.95,4435,17.0,74366.0,3.83,-31.73,-32.13,0,*46
1496023437.16,4436,17.0,74366.8,3.85,-31.91,-32.23,0,*4C
1496023438.38,4437,17.0,74366.8,3.83,-31.79,-32.23,0,*4D
1496023439.64,4438,16.94,74364.8,3.83,-31.91,-32.29,0,*4E
1496023440.88,4439,17.0,74364.8,3.83,-31.67,-32.07,0,*4A
1496023442.13,4440,17.0,74364.0,3.79,-31.67,-32.19,0,*4E
1496023443.34,4441,17.0,74368.0,3.81,-31.61,-32.13,0,*44
1496023444.59,4442,17.0,74364.8,3.81,-31.73,-32.19,0,*4E
1496023445.84,4443,17.0,74368.5,3.79,-31.67,-32.07,0,*42
1496023447.1,4444,17.0,74364.0,3.79,-31.51,-31.91,0,*4C
1496023448.32,4445,17.0,74366.5,3.79,-31.17,-31.67,0,*46
1496023449.53,4446,17.0,74366.8,3.81,-31.05,-31.39,0,*4A
1496023450.78,4447,17.0,74366.3,3.79,-31.17,-31.61,0,*42
1496023451.99,4448,17.0,74366.8,3.81,-31.29,-31.57,0,*42
1496023453.2,4449,17.0,74364.5,3.81,-31.29,-31.73,0,*45
1496023454.44,4450,17.0,74366.5,3.79,-31.51,-32.01,0,*43
1496023455.66,4451,17.0,74366.3,3.81,-31.45,-31.85,0,*4F
1496023456.91,4452,17.0,74366.0,3.79,-31.45,-31.85,0,*4B
1496023458.15,4453,17.0,74368.3,3.81,-31.39,-31.73,0,*4F
1496023459.41,4454,17.0,74368.5,3.79,-31.51,-31.91,0,*4D
1496023460.63,4455,17.0,74366.8,3.81,-31.29,-31.73,0,*48
1496023461.9,4456,17.0,74366.8,3.79,-31.11,-31.51,0,*47
1496023463.12,4457,17.0,74370.5,3.79,-31.01,-31.45,0,*42
1496023464.36,4458,17.0,74366.3,3.79,-30.95,-31.33,0,*40
1496023465.61,4459,17.0,74366.8,3.79,-30.77,-31.29,0,*46
1496023466.85,4460,17.0,74366.5,3.83,-31.05,-31.39,0,*4C
1496023468.09,4461,17.0,74366.8,3.81,-31.11,-31.57,0,*42
1496023469.31,4462,17.0,74366.8,3.81,-30.89,-31.29,0,*48
1496023470.56,4463,17.0,74364.3,3.79,-31.11,-31.45,0,*44
1496023471.8,4464,17.0,74366.8,3.81,-31.11,-31.57,0,*47
1496023473.03,4465,17.0,74364.3,3.81,-30.95,-31.45,0,*48
1496023474.27,4466,17.0,74366.3,3.81,-31.11,-31.57,0,*45
1496023475.48,4467,17.0,74364.5,3.81,-31.29,-31.57,0,*4F
1496023476.7,4468,17.0,74364.0,3.81,-31.29,-31.73,0,*46
1496023477.94,4469,17.0,74368.3,3.83,-31.05,-31.51,0,*4B
1496023479.13,4470,17.0,74366.5,3.81,-31.05,-31.45,0,*44
1496023480.38,4471,17.0,74366.3,3.81,-30.77,-31.23,0,*41
1496023481.62,4472,17.0,74364.3,3.81,-30.77,-31.23,0,*42
1496023482.87,4473,17.0,74366.0,3.83,-30.73,-31.17,0,*42
1496023484.12,4474,16.94,74362.3,3.81,-30.89,-31.23,0,*45
1496023485.34,4475,17.0,74360.8,3.79,-30.83,-31.29,0,*43
1496023486.59,4476,17.0,74364.8,3.83,-30.83,-31.23,0,*4F
1496023487.81,4477,17.0,74366.0,3.85,-30.73,-31.17,0,*40
1496023489.0,4478,17.0,74364.5,3.85,-30.67,-31.17,0,*4A
1496023490.24,4479,17.0,74366.0,3.83,-30.89,-31.33,0,*4B
1496023491.45,4480,17.0,74364.5,3.83,-31.01,-31.33,0,*4C
1496023492.67,4481,17.0,74366.8,3.81,-30.77,-31.29,0,*44
1496023493.92,4482,17.0,74364.3,3.85,-30.73,-31.23,0,*4D
1496023495.17,4483,17.0,74366.0,3.85,-30.89,-31.23,0,*49
1496023496.36,4484,17.0,74368.3,3.85,-30.67,-31.05,0,*4A
1496023497.6,4485,17.0,74366.8,3.83,-31.01,-31.23,0,*48
1496023498.79,4486,17.0,74364.0,3.85,-31.01,-31.33,0,*4C
1496023500.03,4487,17.0,74366.8,3.85,-31.23,-31.51,0,*49
1496023501.28,4488,17.0,74362.8,3.85,-31.23,-31.57,0,*40
1496023502.5,4489,17.0,74366.0,3.81,-31.11,-31.45,0,*47
1496023503.73,4490,17.0,74362.3,3.85,-30.83,-31.23,0,*41
1496023505.0,4491,17.0,74368.3,3.83,-30.89,-31.23,0,*4C
1496023506.22,4492,17.0,74362.8,3.85,-30.83,-31.23,0,*43
1496023507.47,4493,17.0,74366.0,3.85,-30.51,-30.89,0,*4C
1496023508.69,4494,17.0,74366.3,3.85,-30.51,-30.83,0,*41
1496023509.9,4495,17.0,74364.5,3.85,-30.61,-31.01,0,*48
1496023511.13,4496,17.0,74364.0,3.85,-30.83,-31.23,0,*47
1496023512.37,4497,17.0,74366.0,3.85,-30.73,-31.23,0,*49
1496023513.62,4498,17.0,74366.0,3.85,-30.73,-31.23,0,*46
1496023514.82,4499,17.0,74364.5,3.85,-30.67,-31.05,0,*46
1496023516.08,4500,17.0,74366.5,3.83,-30.89,-31.23,0,*45
1496023517.3,4501,17.0,74364.3,3.85,-30.89,-31.33,0,*43
1496023518.5,4502,17.0,74366.3,3.85,-30.67,-31.05,0,*45
1496023519.69,4503,17.0,74362.8,3.85,-30.67,-31.17,0,*47
1496023520.96,4504,17.0,74364.5,3.87,-30.77,-31.11,0,*45
1496023522.16,4505,17.0,74364.0,3.89,-30.83,-31.29,0,*4A
1496023523.4,4506,17.0,74366.3,3.87,-30.77,-31.17,0,*41
1496023524.67,4507,17.0,74366.3,3.87,-30.61,-31.11,0,*41
1496023525.88,4508,17.0,74366.0,3.89,-30.61,-31.01,0,*41
1496023527.12,4509,17.0,74366.0,3.87,-30.55,-31.01,0,*49
1496023528.35,4510,17.0,74364.3,3.87,-30.61,-31.01,0,*46
1496023529.57,4511,17.0,74366.5,3.87,-30.83,-31.29,0,*41
1496023530.8,4512,17.0,74364.3,3.89,-30.77,-31.17,0,*4A
1496023532.03,4513,17.0,74362.8,3.87,-30.61,-31.01,0,*45
1496023533.27,4514,17.0,74364.8,3.89,-30.55,-30.95,0,*47
1496023534.51,4515,17.0,74366.0,3.89,-30.77,-31.11,0,*4B
1496023535.72,4516,17.0,74366.5,3.89,-30.83,-31.45,0,*42
1496023536.91,4517,17.0,74364.8,3.89,-31.01,-31.45,0,*48
1496023538.16,4518,17.0,74362.8,3.87,-30.77,-31.29,0,*43
1496023539.35,4519,17.0,74364.0,3.89,-31.01,-31.29,0,*4C
1496023540.55,4520,17.0,74364.8,3.89,-31.01,-31.45,0,*4C
1496023541.82,4521,17.0,74366.8,3.87,-31.11,-31.51,0,*47
1496023543.04,4522,17.0,74364.0,3.89,-31.17,-31.61,0,*4F
1496023544.23,4523,17.0,74366.8,3.89,-31.01,-31.45,0,*4F
1496023545.43,4524,17.0,74362.3,3.89,-30.83,-31.17,0,*44
1496023546.66,4525,17.0,74364.5,3.89,-30.95,-31.29,0,*4F
1496023547.89,4526,17.0,74366.0,3.89,-31.11,-31.45,0,*4B
1496023549.1,4527,17.0,74364.5,3.87,-31.01,-31.29,0,*4F
1496023550.32,4528,17.0,74364.0,3.89,-30.95,-31.17,0,*4F
1496023551.51,4529,17.0,74364.5,3.89,-31.01,-31.33,0,*44
1496023552.73,4530,17.0,74362.0,3.89,-30.95,-31.33,0,*40
1496023553.92,4531,17.0,74362.8,3.89,-31.01,-31.33,0,*4D
1496023555.13,4532,17.0,74362.3,3.87,-31.01,-31.33,0,*40
1496023556.33,4533,17.0,74364.5,3.89,-31.01,-31.45,0,*4E
1496023557.56,4534,17.0,74364.0,3.89,-31.11,-31.45,0,*48
1496023558.78,4535,17.0,74364.0,3.89,-30.95,-31.33,0,*45
1496023559.97,4536,17.0,74364.3,3.89,-31.01,-31.33,0,*4A
1496023561.2,4537,17.0,74366.0,3.95,-31.01,-31.39,0,*4C
1496023562.4,4538,17.0,74360.0,3.89,-30.83,-31.17,0,*49
1496023563.65,4539,17.0,74364.3,3.89,-31.11,-31.51,0,*40
1496023564.88,4540,17.0,74364.0,3.89,-31.11,-31.45,0,*4B
1496023566.11,4541,17.0,74366.3,3.89,-31.11,-31.45,0,*4A
1496023567.33,4542,17.0,74366.8,3.89,-31.33,-31.61,0,*4F
1496023568.56,4543,17.0,74366.8,3.93,-31.11,-31.45,0,*43
1496023569.79,4544,17.0,74364.8,3.89,-31.11,-31.45,0,*4F
1496023571.01,4545,17.0,74364.3,3.89,-31.29,-31.61,0,*43
1496023572.25,4546,17.0,74362.8,3.87,-31.17,-31.51,0,*40
1496023573.47,4547,17.0,74366.0,3.89,-31.17,-31.51,0,*4F
1496023574.71,4548,17.0,74366.3,3.87,-31.29,-31.73,0,*43
1496023575.98,4549,17.0,74364.5,3.87,-31.11,-31.51,0,*49
1496023577.25,4550,17.0,74364.5,3.87,-31.11,-31.51,0,*41
1496023578.49,4551,17.0,74364.3,3.87,-31.17,-31.51,0,*46
1496023579.71,4552,17.0,74364.8,3.89,-31.17,-31.61,0,*48
1496023580.95,4553,17.0,74364.8,3.87,-31.29,-31.85,0,*40
1496023582.16,4554,17.0,74362.3,3.89,-31.33,-31.73,0,*4B
1496023583.4,4555,17.0,74362.3,3.87,-31.33,-31.91,0,*48
1496023584.67,4556,17.0,74366.3,3.87,-31.73,-32.07,0,*43
1496023585.89,4557,17.0,74362.5,3.87,-31.33,-31.67,0,*43
1496023587.11,4558,17.0,74362.8,3.89,-31.29,-31.61,0,*4F
1496023588.35,4559,17.0,74366.0,3.87,-31.17,-31.61,0,*4D
1496023589.59,4560,17.0,74362.8,3.87,-31.29,-31.51,0,*49
1496023590.83,4561,17.0,74366.3,3.87,-31.17,-31.61,0,*46
1496023592.07,4562,17.0,74364.0,3.87,-31.45,-31.73,0,*41
1496023593.33,4563,17.0,74366.3,3.87,-31.51,-31.91,0,*49
1496023594.58,4564,17.0,74360.8,3.85,-31.51,-32.07,0,*40
1496023595.83,4565,17.0,74362.8,3.85,-31.57,-31.95,0,*4F
1496023597.07,4566,17.0,74364.3,3.83,-31.73,-32.13,0,*41
1496023598.31,4567,17.0,74364.8,3.83,-31.57,-32.13,0,*46
1496023599.55,4568,17.0,74366.0,3.83,-31.51,-31.79,0,*40
1496023600.79,4569,17.0,74360.3,3.83,-31.57,-31.79,0,*47
1496023602.05,4570,17.0,74366.8,3.83,-31.51,-31.73,0,*43
1496023603.23,4571,17.0,74366.5,3.85,-31.33,-31.67,0,*45
1496023604.48,4572,17.0,74366.8,3.83,-31.23,-31.67,0,*41
1496023605.74,4573,17.0,74360.8,3.83,-31.39,-31.73,0,*4E
1496023606.97,4574,17.0,74366.8,3.83,-31.33,-31.73,0,*43
1496023608.23,4575,16.94,74364.0,3.83,-31.39,-31.73,0,*48
1496023609.44,4576,17.0,74362.3,3.83,-31.33,-31.67,0,*44
1496023610.69,4577,17.0,74364.3,3.83,-31.23,-31.67,0,*44
1496023611.92,4578,17.0,74364.8,3.85,-31.39,-31.73,0,*43
1496023613.19,4579,17.0,74362.8,3.83,-31.39,-31.91,0,*48
1496023614.45,4580,17.0,74362.0,3.83,-31.57,-31.91,0,*46
1496023615.69,4581,17.0,74362.0,3.83,-31.39,-31.79,0,*49
1496023616.93,4582,17.0,74364.0,3.83,-31.51,-31.79,0,*44
1496023618.17,4583,17.0,74368.0,3.83,-31.73,-32.13,0,*4A
1496023619.38,4584,17.0,74362.5,3.83,-31.79,-32.13,0,*47
1496023620.66,4585,17.0,74362.8,3.79,-31.61,-32.07,0,*4F
1496023621.91,4586,17.0,74362.8,3.81,-31.61,-31.95,0,*43
1496023623.17,4587,17.0,74360.5,3.79,-31.51,-31.85,0,*47
1496023624.39,4588,17.0,74366.5,3.81,-31.45,-31.85,0,*4A
1496023625.67,4589,17.0,74364.0,3.79,-31.61,-31.95,0,*4B
1496023626.94,4590,16.94,74360.3,3.79,-31.61,-31.91,0,*47
1496023628.19,4591,17.0,74364.5,3.81,-31.57,-31.95,0,*40
1496023629.43,4592,17.0,74364.0,3.79,-31.67,-32.07,0,*4F
1496023630.65,4593,17.0,74364.3,3.81,-31.79,-32.19,0,*49
1496023631.87,4594,17.0,74366.3,3.79,-32.01,-32.35,0,*4B
1496023633.07,4595,17.0,74360.8,3.77,-31.79,-32.01,0,*4F
1496023634.31,4596,16.94,74362.0,3.77,-31.61,-31.85,0,*4A
1496023635.5,4597,17.0,74364.8,3.77,-31.33,-31.67,0,*40
1496023636.72,4598,17.0,74360.5,3.77,-31.29,-31.51,0,*41
1496023637.96,4599,17.0,74366.0,3.79,-30.95,-31.33,0,*4C
1496023639.21,4600,17.0,74360.0,3.79,-30.95,-31.29,0,*44
1496023640.45,4601,17.0,74364.8,3.79,-30.95,-31.29,0,*45
1496023641.67,4602,17.0,74362.3,3.81,-30.95,-31.29,0,*41
1496023642.92,4603,17.0,74360.8,3.79,-31.17,-31.51,0,*43
1496023644.13,4604,16.94,74362.0,3.79,-31.33,-31.67,0,*47
1496023645.35,4605,17.0,74364.0,3.79,-31.29,-31.79,0,*42
1496023646.62,4606,17.0,74362.5,3.79,-31.51,-31.91,0,*48
1496023647.89,4607,17.0,74360.0,3.79,-31.61,-31.85,0,*4F
1496023649.16,4608,17.0,74360.3,3.79,-31.61,-31.91,0,*45
1496023650.38,4609,16.94,74358.0,3.79,-31.45,-31.67,0,*4B
1496023651.56,4610,17.0,74360.0,3.81,-31.33,-31.67,0,*45
1496023652.78,4611,17.0,74362.8,3.79,-31.33,-31.79,0,*4C
1496023654.0,4612,17.0,74362.8,3.79,-31.33,-31.67,0,*40
1496023655.24,4613,17.0,74362.0,3.79,-31.29,-31.61,0,*4C
1496023656.48,4614,17.0,74360.3,3.81,-31.23,-31.57,0,*43
1496023657.73,4615,16.94,74362.5,3.79,-31.33,-31.51,0,*42
1496023658.94,4616,17.0,74366.3,3.79,-31.29,-31.67,0,*4F
1496023660.16,4617,17.0,74360.8,3.81,-31.29,-31.61,0,*4F
1496023661.41,4618,17.0,74362.8,3.79,-31.29,-31.61,0,*47
1496023662.62,4619,16.94,74358.3,3.79,-31.33,-31.67,0,*4B
1496023663.84,4620,17.0,74362.0,3.77,-31.45,-31.85,0,*42
1496023665.06,4621,17.0,74362.0,3.77,-31.45,-31.85,0,*43
1496023666.3,4622,17.0,74362.8,3.81,-31.39,-31.61,0,*48
1496023667.52,4623,17.0,74364.0,3.79,-31.45,-31.79,0,*4C
1496023668.74,4624,17.0,74362.3,3.79,-31.33,-31.79,0,*4A
1496023669.93,4625,17.0,74360.3,3.77,-31.45,-31.79,0,*44
1496023671.17,4626,17.0,74360.8,3.77,-31.51,-31.91,0,*44
1496023672.36,4627,16.94,74358.5,3.77,-31.33,-31.67,0,*48
1496023673.59,4628,16.94,74360.5,3.77,-31.11,-31.45,0,*47
1496023674.78,4629,17.0,74362.5,3.77,-31.01,-31.45,0,*47
1496023676.01,4630,16.94,74356.5,3.77,-31.11,-31.45,0,*4E
1496023677.26,4631,17.0,74362.0,3.77,-31.11,-31.51,0,*4A
1496023678.46,4632,17.0,74358.3,3.77,-31.01,-31.45,0,*4D
1496023679.7,4633,16.94,74356.8,3.79,-31.17,-31.51,0,*40
1496023680.95,4634,16.94,74356.8,3.79,-31.11,-31.45,0,*44
1496023682.2,4635,17.0,74358.5,3.79,-31.29,-31.61,0,*48
1496023683.42,4636,17.0,74360.0,3.77,-31.11,-31.33,0,*49
1496023684.61,4637,17.0,74360.8,3.77,-30.83,-31.29,0,*49
1496023685.83,4638,17.0,74362.8,3.79,-31.01,-31.45,0,*49
1496023687.08,4639,17.0,74360.8,3.79,-31.11,-31.33,0,*48
1496023688.32,4640,17.0,74360.3,3.81,-31.11,-31.57,0,*43
1496023689.51,4641,16.94,74358.3,3.77,-31.01,-31.45,0,*49
1496023690.76,4642,17.0,74366.0,3.79,-30.95,-31.29,0,*42
1496023691.96,4643,17.0,74362.3,3.81,-30.67,-31.05,0,*47
1496023693.18,4644,17.0,74360.3,3.79,-30.83,-31.29,0,*43
1496023694.41,4645,17.0,74360.0,3.81,-31.11,-31.45,0,*45
1496023695.62,4646,17.0,74362.5,3.79,-31.01,-31.33,0,*41
1496023696.84,4647,17.0,74360.5,3.81,-30.95,-31.29,0,*40
1496023698.09,4648,17.0,74360.3,3.79,-30.95,-31.29,0,*48
1496023699.33,4649,16.94,74358.3,3.81,-30.95,-31.23,0,*44
1496023700.58,4650,16.94,74360.3,3.79,-31.11,-31.33,0,*47
1496023701.8,4651,17.0,74360.5,3.79,-31.01,-31.45,0,*46
1496023703.02,4652,16.94,74360.0,3.81,-30.89,-31.29,0,*49
1496023704.24,4653,16.94,74360.5,3.79,-31.01,-31.45,0,*44
1496023705.45,4654,17.0,74360.8,3.79,-31.01,-31.33,0,*42
1496023706.67,4655,17.0,74360.8,3.79,-31.01,-31.45,0,*42
1496023707.91,4656,17.0,74366.3,3.81,-31.23,-31.57,0,*45
1496023709.13,4657,17.0,74362.3,3.79,-31.17,-31.67,0,*47
1496023710.35,4658,16.94,74362.0,3.79,-31.01,-31.45,0,*4F
1496023711.6,4659,17.0,74362.8,3.79,-31.11,-31.45,0,*4F
1496023712.84,4660,16.94,74360.0,3.79,-31.17,-31.61,0,*45
1496023714.07,4661,16.94,74360.5,3.81,-31.11,-31.29,0,*49
1496023715.26,4662,17.0,74360.8,3.81,-31.05,-31.45,0,*45
1496023716.49,4663,17.0,74366.3,3.81,-31.11,-31.45,0,*41
1496023717.74,4664,17.0,74364.3,3.81,-31.23,-31.61,0,*41